This is the latest recevied weather packets stored in our database for station/object K7PMV-13. If no packets are shown the sender has not sent any weather packets the latest 1 day(s).
| Time | Temp. | Humidity | Pressure | Rain* | Wind** | Luminosity | Snow |
|---|---|---|---|---|---|---|---|
| 1778014730 | 26.11° C | 29% | 1007.1 hPa | 0 mm | 4.02 m/s, 360° | 937 W/m² | - |
| 1778014415 | 26.11° C | 30% | 1007.2 hPa | 0 mm | 1.79 m/s, 360° | 954 W/m² | - |
| 1778014101 | 26.11° C | 30% | 1007.2 hPa | 0 mm | 3.58 m/s, 360° | 984 W/m² | - |
| 1778013786 | 26.11° C | 30% | 1007.1 hPa | 0 mm | 3.58 m/s, 360° | 103 W/m² | - |
| 1778013472 | 26.11° C | 30% | 1007.1 hPa | 0 mm | 4.02 m/s, 360° | 283 W/m² | - |
| 1778013149 | 26.11° C | 31% | 1007.2 hPa | 0 mm | 1.34 m/s, 360° | 102 W/m² | - |
| 1778012835 | 25.56° C | 31% | 1007.2 hPa | 0 mm | 5.36 m/s, 360° | 104 W/m² | - |
| 1778012515 | 25.56° C | 31% | 1007.3 hPa | 0 mm | 3.58 m/s, 360° | 967 W/m² | - |
| 1778012201 | 25.56° C | 33% | 1007.3 hPa | 0 mm | 1.79 m/s, 360° | 101 W/m² | - |
| 1778011886 | 25° C | 33% | 1007.3 hPa | 0 mm | 2.68 m/s, 360° | 316 W/m² | - |
| 1778011567 | 25° C | 33% | 1007.4 hPa | 0 mm | 0.89 m/s, 360° | 332 W/m² | - |
| 1778011239 | 25.56° C | 33% | 1007.4 hPa | 0 mm | 0.45 m/s, 360° | 353 W/m² | - |
| 1778010919 | 25.56° C | 33% | 1007.4 hPa | 0 mm | 2.68 m/s, 360° | 330 W/m² | - |
| 1778010602 | 26.11° C | 33% | 1007.5 hPa | 0 mm | 4.47 m/s, 360° | 113 W/m² | - |
| 1778010287 | 25° C | 36% | 1007.6 hPa | 0 mm | 1.34 m/s, 360° | 118 W/m² | - |
| 1778009973 | 24.44° C | 37% | 1007.6 hPa | 0 mm | 2.24 m/s, 360° | 112 W/m² | - |
| 1778009656 | 24.44° C | 37% | 1007.7 hPa | 0 mm | 1.79 m/s, 360° | 115 W/m² | - |
| 1778009336 | 23.89° C | 38% | 1007.6 hPa | 0 mm | 2.24 m/s, 360° | 213 W/m² | - |
| 1778009017 | 23.89° C | 39% | 1007.7 hPa | 0 mm | 1.79 m/s, 360° | 295 W/m² | - |
| 1778008699 | 24.44° C | 39% | 1007.8 hPa | 0 mm | 0.89 m/s, 360° | 299 W/m² | - |
| 1778008017 | 25° C | 38% | 1008 hPa | 0 mm | 5.36 m/s, 360° | 643 W/m² | - |
| 1778007703 | 24.44° C | 39% | 1007.9 hPa | 0 mm | 2.24 m/s, 360° | 104 W/m² | - |
| 1778007388 | 23.89° C | 39% | 1008 hPa | 0 mm | 2.68 m/s, 360° | 290 W/m² | - |
| 1778007073 | 23.89° C | 41% | 1008 hPa | 0 mm | 2.24 m/s, 360° | 287 W/m² | - |
| 1778006750 | 23.89° C | 41% | 1008.1 hPa | 0 mm | 1.34 m/s, 360° | 315 W/m² | - |
* Rain latest hour (hover to see other rain measurements)
** Current wind speed in m/s (hover to see current wind gust speed)